owner,sensor,date,latitude,longitude,vertical_datum,wind_speed,wind_to_direction,wind_speed_of_gust,qcFlag 
TABS,ioos:station:wmo:42047:1,2016-08-01T00:00:00Z,27.8966,-93.5973,4.0,1.068316433,136.8968296,1.72,'11111222,11111222,11111222' 
TABS,ioos:station:wmo:42047:1,2016-08-01T00:30:00Z,27.8966,-93.5973,4.0,1.203411816,137.6945937,1.87,'11111222,11111222,11111222' 
TABS,ioos:station:wmo:42047:1,2016-08-01T01:00:00Z,27.8966,-93.5973,4.0,1.180677771,141.1889172,1.77,'11111222,11111222,11111222' 
TABS,ioos:station:wmo:42047:1,2016-08-01T01:30:00Z,27.8966,-93.5973,4.0,1.785385113,167.0537312,2.32,'11111222,11111222,11111222' 
TABS,ioos:station:wmo:42047:1,2016-08-01T02:00:00Z,27.8966,-93.5973,4.0,2.245439823,160.7583772,2.93,'11111222,11111222,11111222' 
TABS,ioos:station:wmo:42047:1,2016-08-01T02:30:00Z,27.8966,-93.5973,4.0,2.57670332,145.7551682,3.2,'11111222,11111222,11111222' 
TABS,ioos:station:wmo:42047:1,2016-08-01T03:00:00Z,27.8966,-93.5973,4.0,3.202202367,140.1947324,3.75,'11111222,11111222,11111222' 
TABS,ioos:station:wmo:42047:1,2016-08-01T03:30:00Z,27.8966,-93.5973,4.0,4.0046473,142.1002187,4.85,'11111222,11111222,11111222' 
TABS,ioos:station:wmo:42047:1,2016-08-01T04:00:00Z,27.8966,-93.5973,4.0,3.645888095,154.8409674,4.41,'11111222,11111222,11111222' 
TABS,ioos:station:wmo:42047:1,2016-08-01T04:30:00Z,27.8966,-93.5973,4.0,3.617651172,161.4651376,4.29,'11111222,11111222,11111222' 
TABS,ioos:station:wmo:42047:1,2016-08-01T05:00:00Z,27.8966,-93.5973,4.0,4.055613394,157.9889787,5.04,'11111222,11111222,11111222' 
TABS,ioos:station:wmo:42047:1,2016-08-01T05:30:00Z,27.8966,-93.5973,4.0,4.571706465,163.3490217,5.97,'11111222,11111222,11111222' 
TABS,ioos:station:wmo:42047:1,2016-08-01T06:00:00Z,27.8966,-93.5973,4.0,4.698819001,167.0878797,5.63,'11111222,11111222,11111222' 
TABS,ioos:station:wmo:42047:1,2016-08-01T06:30:00Z,27.8966,-93.5973,4.0,4.726520919,173.9277683,6.0,'11111222,11111222,11111222' 
TABS,ioos:station:wmo:42047:1,2016-08-01T07:00:00Z,27.8966,-93.5973,4.0,4.677317607,188.9791844,5.72,'11111222,11111222,11111222' 
TABS,ioos:station:wmo:42047:1,2016-08-01T07:30:00Z,27.8966,-93.5973,4.0,4.780261499,180.5995154,5.73,'11111222,11111222,11111222' 
TABS,ioos:station:wmo:42047:1,2016-08-01T08:00:00Z,27.8966,-93.5973,4.0,4.721281606,178.6651722,5.79,'11111222,11111222,11111222' 
TABS,ioos:station:wmo:42047:1,2016-08-01T08:30:00Z,27.8966,-93.5973,4.0,3.804339627,184.976463,5.0,'11111222,11111222,11111222' 
TABS,ioos:station:wmo:42047:1,2016-08-01T09:00:00Z,27.8966,-93.5973,4.0,4.010049875,179.714449,4.99,'11111222,11111222,11111222' 
TABS,ioos:station:wmo:42047:1,2016-08-01T09:30:00Z,27.8966,-93.5973,4.0,3.570224083,180.6421516,4.47,'11111222,11111222,11111222' 
TABS,ioos:station:wmo:42047:1,2016-08-01T10:00:00Z,27.8966,-93.5973,4.0,3.110048231,195.2876091,4.1,'11111222,11111222,11111222' 
TABS,ioos:station:wmo:42047:1,2016-08-01T10:30:00Z,27.8966,-93.5973,4.0,3.652245884,204.2493582,4.47,'11111222,11111222,11111222' 
TABS,ioos:station:wmo:42047:1,2016-08-01T11:00:00Z,27.8966,-93.5973,4.0,3.976895774,196.6580171,5.17,'11111222,11111222,11111222' 
TABS,ioos:station:wmo:42047:1,2016-08-01T11:30:00Z,27.8966,-93.5973,4.0,2.297128642,187.0014616,3.11,'11111222,11111222,11111222' 
TABS,ioos:station:wmo:42047:1,2016-08-01T12:00:00Z,27.8966,-93.5973,4.0,0.995037688,174.232335,1.51,'11111222,11111222,11111222' 
TABS,ioos:station:wmo:42047:1,2016-08-01T12:30:00Z,27.8966,-93.5973,4.0,1.528561415,249.3123898,2.26,'11111222,11111222,11111222' 
TABS,ioos:station:wmo:42047:1,2016-08-01T13:00:00Z,27.8966,-93.5973,4.0,1.654841382,244.2092293,2.35,'11111222,11111222,11111222' 
TABS,ioos:station:wmo:42047:1,2016-08-01T13:30:00Z,27.8966,-93.5973,4.0,1.476651618,238.5705079,2.22,'11111222,11111222,11111222' 
TABS,ioos:station:wmo:42047:1,2016-08-01T14:00:00Z,27.8966,-93.5973,4.0,2.075090359,190.5519953,3.63,'11111222,11111222,11111222' 
TABS,ioos:station:wmo:42047:1,2016-08-01T14:30:00Z,27.8966,-93.5973,4.0,1.335402561,264.8444277,1.8,'11111222,11111222,11111222' 
TABS,ioos:station:wmo:42047:1,2016-08-01T15:00:00Z,27.8966,-93.5973,4.0,1.3921566,284.1360287,2.0,'11111222,11111222,11111222' 
TABS,ioos:station:wmo:42047:1,2016-08-01T15:30:00Z,27.8966,-93.5973,4.0,0.491629942,4.666637,0.79,'11111222,11111222,11111222' 
TABS,ioos:station:wmo:42047:1,2016-08-01T16:00:00Z,27.8966,-93.5973,4.0,1.983985887,48.67791443,2.6,'11111222,11111222,11111222' 
TABS,ioos:station:wmo:42047:1,2016-08-01T16:30:00Z,27.8966,-93.5973,4.0,1.502697574,26.05322393,2.09,'11111222,11111222,11111222' 
TABS,ioos:station:wmo:42047:1,2016-08-01T17:00:00Z,27.8966,-93.5973,4.0,1.075174404,43.49225208,1.77,'11111222,11111222,11111222' 
TABS,ioos:station:wmo:42047:1,2016-08-01T17:30:00Z,27.8966,-93.5973,4.0,1.169016681,79.65091919,1.94,'11111222,11111222,11111222' 
TABS,ioos:station:wmo:42047:1,2016-08-01T18:00:00Z,27.8966,-93.5973,4.0,0.715891053,347.9050607,1.21,'11111222,11111222,11111222' 
TABS,ioos:station:wmo:42047:1,2016-08-01T18:30:00Z,27.8966,-93.5973,4.0,1.139517442,42.51013721,2.42,'11111222,11111222,11111222' 
TABS,ioos:station:wmo:42047:1,2016-08-01T19:00:00Z,27.8966,-93.5973,4.0,1.97144617,98.45931354,2.62,'11111222,11111222,11111222' 
TABS,ioos:station:wmo:42047:1,2016-08-01T19:30:00Z,27.8966,-93.5973,4.0,1.354178718,37.80046751,2.2,'11111222,11111222,11111222' 
TABS,ioos:station:wmo:42047:1,2016-08-01T20:00:00Z,27.8966,-93.5973,4.0,2.294275485,63.88133065,3.5,'11111222,11111222,11111222' 
TABS,ioos:station:wmo:42047:1,2016-08-01T20:30:00Z,27.8966,-93.5973,4.0,2.304365422,78.7384353,5.84,'11111222,11111222,11111222' 
TABS,ioos:station:wmo:42047:1,2016-08-01T21:00:00Z,27.8966,-93.5973,4.0,2.853296339,66.66920769,3.89,'11111222,11111222,11111222' 
TABS,ioos:station:wmo:42047:1,2016-08-01T21:30:00Z,27.8966,-93.5973,4.0,3.197764844,67.76568327,3.94,'11111222,11111222,11111222' 
TABS,ioos:station:wmo:42047:1,2016-08-01T22:00:00Z,27.8966,-93.5973,4.0,4.375671377,85.14895578,5.66,'11111222,11111222,11111222' 
TABS,ioos:station:wmo:42047:1,2016-08-01T22:30:00Z,27.8966,-93.5973,4.0,4.158966218,83.23342008,4.98,'11111222,11111222,11111222' 
TABS,ioos:station:wmo:42047:1,2016-08-01T23:00:00Z,27.8966,-93.5973,4.0,4.465926556,92.952514,5.48,'11111222,11111222,11111222' 
TABS,ioos:station:wmo:42047:1,2016-08-01T23:30:00Z,27.8966,-93.5973,4.0,4.326777092,102.1413932,5.91,'11111222,11111222,11111222' 
TABS,ioos:station:wmo:42047:1,2016-08-02T00:00:00Z,27.8966,-93.5973,4.0,4.539217994,116.56541,5.68,'11111222,11111222,11111222' 
TABS,ioos:station:wmo:42047:1,2016-08-02T00:30:00Z,27.8966,-93.5973,4.0,4.905670189,125.37509,5.83,'11111222,11111222,11111222' 
TABS,ioos:station:wmo:42047:1,2016-08-02T01:00:00Z,27.8966,-93.5973,4.0,4.940131577,124.526783,6.17,'11111222,11111222,11111222' 
TABS,ioos:station:wmo:42047:1,2016-08-02T01:30:00Z,27.8966,-93.5973,4.0,4.884014742,127.0110076,5.74,'11111222,11111222,11111222' 
TABS,ioos:station:wmo:42047:1,2016-08-02T02:00:00Z,27.8966,-93.5973,4.0,5.184100693,122.9547115,6.43,'11111222,11111222,11111222' 
TABS,ioos:station:wmo:42047:1,2016-08-02T02:30:00Z,27.8966,-93.5973,4.0,5.394163513,132.295446,6.34,'11111222,11111222,11111222' 
TABS,ioos:station:wmo:42047:1,2016-08-02T03:00:00Z,27.8966,-93.5973,4.0,5.375620894,128.2772857,6.11,'11111222,11111222,11111222' 
TABS,ioos:station:wmo:42047:1,2016-08-02T03:30:00Z,27.8966,-93.5973,4.0,5.61601282,143.2528254,7.0,'11111222,11111222,11111222' 
TABS,ioos:station:wmo:42047:1,2016-08-02T04:00:00Z,27.8966,-93.5973,4.0,5.64415627,141.5465912,7.13,'11111222,11111222,11111222' 
TABS,ioos:station:wmo:42047:1,2016-08-02T04:30:00Z,27.8966,-93.5973,4.0,5.637135798,145.0415787,6.63,'11111222,11111222,11111222' 
TABS,ioos:station:wmo:42047:1,2016-08-02T05:00:00Z,27.8966,-93.5973,4.0,5.755145524,146.6967889,6.87,'11111222,11111222,11111222' 
TABS,ioos:station:wmo:42047:1,2016-08-02T05:30:00Z,27.8966,-93.5973,4.0,5.581057248,151.1849864,6.76,'11111222,11111222,11111222' 
TABS,ioos:station:wmo:42047:1,2016-08-02T06:00:00Z,27.8966,-93.5973,4.0,4.81964729,144.6284493,6.32,'11111222,11111222,11111222' 
TABS,ioos:station:wmo:42047:1,2016-08-02T06:30:00Z,27.8966,-93.5973,4.0,5.395590792,148.4901763,6.32,'11111222,11111222,11111222' 
TABS,ioos:station:wmo:42047:1,2016-08-02T07:00:00Z,27.8966,-93.5973,4.0,4.743680006,159.3876669,6.09,'11111222,11111222,11111222' 
TABS,ioos:station:wmo:42047:1,2016-08-02T07:30:00Z,27.8966,-93.5973,4.0,4.644921958,166.6820278,5.87,'11111222,11111222,11111222' 
TABS,ioos:station:wmo:42047:1,2016-08-02T08:00:00Z,27.8966,-93.5973,4.0,4.421085839,167.7244534,5.53,'11111222,11111222,11111222' 
TABS,ioos:station:wmo:42047:1,2016-08-02T08:30:00Z,27.8966,-93.5973,4.0,3.408019953,174.1056161,4.27,'11111222,11111222,11111222' 
TABS,ioos:station:wmo:42047:1,2016-08-02T09:00:00Z,27.8966,-93.5973,4.0,2.660545057,172.8752108,3.65,'11111222,11111222,11111222' 
TABS,ioos:station:wmo:42047:1,2016-08-02T09:30:00Z,27.8966,-93.5973,4.0,2.365776828,158.423716,3.22,'11111222,11111222,11111222' 
TABS,ioos:station:wmo:42047:1,2016-08-02T10:00:00Z,27.8966,-93.5973,4.0,2.095041766,159.3161786,2.74,'11111222,11111222,11111222' 
TABS,ioos:station:wmo:42047:1,2016-08-02T10:30:00Z,27.8966,-93.5973,4.0,3.115846594,163.0191968,3.77,'11111222,11111222,11111222' 
TABS,ioos:station:wmo:42047:1,2016-08-02T11:00:00Z,27.8966,-93.5973,4.0,2.721506936,185.2708689,3.5,'11111222,11111222,11111222' 
TABS,ioos:station:wmo:42047:1,2016-08-02T11:30:00Z,27.8966,-93.5973,4.0,2.359364321,197.5135499,3.4,'11111222,11111222,11111222' 
TABS,ioos:station:wmo:42047:1,2016-08-02T12:00:00Z,27.8966,-93.5973,4.0,1.794017837,196.5158744,2.38,'11111222,11111222,11111222' 
TABS,ioos:station:wmo:42047:1,2016-08-02T12:30:00Z,27.8966,-93.5973,4.0,1.86118242,171.3476889,2.86,'11111222,11111222,11111222' 
TABS,ioos:station:wmo:42047:1,2016-08-02T13:00:00Z,27.8966,-93.5973,4.0,3.16512243,183.2603635,3.89,'11111222,11111222,11111222' 
TABS,ioos:station:wmo:42047:1,2016-08-02T13:30:00Z,27.8966,-93.5973,4.0,2.959408725,191.4999622,3.67,'11111222,11111222,11111222' 
TABS,ioos:station:wmo:42047:1,2016-08-02T14:00:00Z,27.8966,-93.5973,4.0,1.742699056,186.9213119,2.1,'11111222,11111222,11111222' 
TABS,ioos:station:wmo:42047:1,2016-08-02T14:30:00Z,27.8966,-93.5973,4.0,1.77552809,184.522654,2.54,'11111222,11111222,11111222' 
TABS,ioos:station:wmo:42047:1,2016-08-02T15:00:00Z,27.8966,-93.5973,4.0,2.027806697,157.9889787,2.58,'11111222,11111222,11111222' 
TABS,ioos:station:wmo:42047:1,2016-08-02T15:30:00Z,27.8966,-93.5973,4.0,1.42130222,135.2853663,1.84,'11111222,11111222,11111222' 
TABS,ioos:station:wmo:42047:1,2016-08-02T16:00:00Z,27.8966,-93.5973,4.0,1.448861622,96.34059784,1.76,'11111222,11111222,11111222' 
TABS,ioos:station:wmo:42047:1,2016-08-02T16:30:00Z,27.8966,-93.5973,4.0,1.681338752,105.5244956,2.63,'11111222,11111222,11111222' 
TABS,ioos:station:wmo:42047:1,2016-08-02T17:00:00Z,27.8966,-93.5973,4.0,1.874886663,123.6904097,2.6,'11111222,11111222,11111222' 
TABS,ioos:station:wmo:42047:1,2016-08-02T17:30:00Z,27.8966,-93.5973,4.0,2.589710409,121.4194251,3.52,'11111222,11111222,11111222' 
TABS,ioos:station:wmo:42047:1,2016-08-02T18:00:00Z,27.8966,-93.5973,4.0,2.124923528,120.5479212,2.82,'11111222,11111222,11111222' 
TABS,ioos:station:wmo:42047:1,2016-08-02T18:30:00Z,27.8966,-93.5973,4.0,2.268942485,120.7475692,3.42,'11111222,11111222,11111222' 
TABS,ioos:station:wmo:42047:1,2016-08-02T19:00:00Z,27.8966,-93.5973,4.0,2.309328907,106.8659755,3.6,'11111222,11111222,11111222' 
TABS,ioos:station:wmo:42047:1,2016-08-02T19:30:00Z,27.8966,-93.5973,4.0,3.077823907,103.7205831,4.02,'11111222,11111222,11111222' 
TABS,ioos:station:wmo:42047:1,2016-08-02T20:00:00Z,27.8966,-93.5973,4.0,3.922371731,25.84617078,4.99,'11111222,11111222,11111222' 
TABS,ioos:station:wmo:42047:1,2016-08-02T20:30:00Z,27.8966,-93.5973,4.0,1.889576672,66.28344509,2.46,'11111222,11111222,11111222' 
TABS,ioos:station:wmo:42047:1,2016-08-02T21:00:00Z,27.8966,-93.5973,4.0,2.096592474,79.27922391,3.58,'11111222,11111222,11111222' 
TABS,ioos:station:wmo:42047:1,2016-08-02T21:30:00Z,27.8966,-93.5973,4.0,2.423984323,96.15787886,3.55,'11111222,11111222,11111222' 
TABS,ioos:station:wmo:42047:1,2016-08-02T22:00:00Z,27.8966,-93.5973,4.0,2.0,106.2605876,2.9,'11111222,11111222,11111222' 
TABS,ioos:station:wmo:42047:1,2016-08-02T22:30:00Z,27.8966,-93.5973,4.0,2.400520777,107.4540742,3.39,'11111222,11111222,11111222' 
TABS,ioos:station:wmo:42047:1,2016-08-02T23:00:00Z,27.8966,-93.5973,4.0,2.423922441,113.0748065,3.25,'11111222,11111222,11111222' 
TABS,ioos:station:wmo:42047:1,2016-08-02T23:30:00Z,27.8966,-93.5973,4.0,2.158448517,128.0382857,3.03,'11111222,11111222,11111222' 
TABS,ioos:station:wmo:42047:1,2016-08-03T00:00:00Z,27.8966,-93.5973,4.0,2.790161286,106.8766461,3.77,'11111222,11111222,11111222' 
TABS,ioos:station:wmo:42047:1,2016-08-03T00:30:00Z,27.8966,-93.5973,4.0,2.539488137,113.4359595,3.53,'11111222,11111222,11111222' 
TABS,ioos:station:wmo:42047:1,2016-08-03T01:00:00Z,27.8966,-93.5973,4.0,2.230201785,111.849486,3.04,'11111222,11111222,11111222' 
TABS,ioos:station:wmo:42047:1,2016-08-03T01:30:00Z,27.8966,-93.5973,4.0,3.017051541,131.7758006,3.8,'11111222,11111222,11111222' 
TABS,ioos:station:wmo:42047:1,2016-08-03T02:00:00Z,27.8966,-93.5973,4.0,3.139187793,131.254929,4.71,'11111222,11111222,11111222' 
TABS,ioos:station:wmo:42047:1,2016-08-03T02:30:00Z,27.8966,-93.5973,4.0,3.261180768,129.4009894,4.02,'11111222,11111222,11111222' 
TABS,ioos:station:wmo:42047:1,2016-08-03T03:00:00Z,27.8966,-93.5973,4.0,3.206275097,143.8809541,3.97,'11111222,11111222,11111222' 
TABS,ioos:station:wmo:42047:1,2016-08-03T03:30:00Z,27.8966,-93.5973,4.0,3.02671439,135.8034731,3.9,'11111222,11111222,11111222' 
TABS,ioos:station:wmo:42047:1,2016-08-03T04:00:00Z,27.8966,-93.5973,4.0,3.295603131,135.9838353,4.14,'11111222,11111222,11111222' 
TABS,ioos:station:wmo:42047:1,2016-08-03T04:30:00Z,27.8966,-93.5973,4.0,3.330840735,134.1488507,4.21,'11111222,11111222,11111222' 
TABS,ioos:station:wmo:42047:1,2016-08-03T05:00:00Z,27.8966,-93.5973,4.0,1.781039023,139.782837,3.28,'11111222,11111222,11111222' 
TABS,ioos:station:wmo:42047:1,2016-08-03T05:30:00Z,27.8966,-93.5973,4.0,2.881752939,146.7513729,3.81,'11111222,11111222,11111222' 
TABS,ioos:station:wmo:42047:1,2016-08-03T06:00:00Z,27.8966,-93.5973,4.0,2.815190935,145.8586398,3.81,'11111222,11111222,11111222' 
TABS,ioos:station:wmo:42047:1,2016-08-03T06:30:00Z,27.8966,-93.5973,4.0,2.659793225,146.1907315,3.49,'11111222,11111222,11111222' 
TABS,ioos:station:wmo:42047:1,2016-08-03T07:00:00Z,27.8966,-93.5973,4.0,3.336405251,154.0496284,4.32,'11111222,11111222,11111222' 
TABS,ioos:station:wmo:42047:1,2016-08-03T07:30:00Z,27.8966,-93.5973,4.0,3.190814943,168.7959509,4.26,'11111222,11111222,11111222' 
TABS,ioos:station:wmo:42047:1,2016-08-03T08:00:00Z,27.8966,-93.5973,4.0,3.081330881,163.211954,4.09,'11111222,11111222,11111222' 
TABS,ioos:station:wmo:42047:1,2016-08-03T08:30:00Z,27.8966,-93.5973,4.0,2.669925093,153.0513367,3.45,'11111222,11111222,11111222' 
TABS,ioos:station:wmo:42047:1,2016-08-03T09:00:00Z,27.8966,-93.5973,4.0,2.459634119,149.9953598,3.56,'11111222,11111222,11111222' 
TABS,ioos:station:wmo:42047:1,2016-08-03T09:30:00Z,27.8966,-93.5973,4.0,1.937059627,159.1326389,2.72,'11111222,11111222,11111222' 
TABS,ioos:station:wmo:42047:1,2016-08-03T10:00:00Z,27.8966,-93.5973,4.0,2.455076374,171.8041183,3.17,'11111222,11111222,11111222' 
TABS,ioos:station:wmo:42047:1,2016-08-03T10:30:00Z,27.8966,-93.5973,4.0,1.322308587,157.3137368,1.94,'11111222,11111222,11111222' 
TABS,ioos:station:wmo:42047:1,2016-08-03T11:00:00Z,27.8966,-93.5973,4.0,1.547966408,140.2421234,2.17,'11111222,11111222,11111222' 
TABS,ioos:station:wmo:42047:1,2016-08-03T11:30:00Z,27.8966,-93.5973,4.0,0.937229961,140.1947324,1.75,'11111222,11111222,11111222' 
TABS,ioos:station:wmo:42047:1,2016-08-03T12:00:00Z,27.8966,-93.5973,4.0,0.788923317,149.5347368,1.01,'11111222,11111222,11111222' 
TABS,ioos:station:wmo:42047:1,2016-08-03T12:30:00Z,27.8966,-93.5973,4.0,0.281780056,332.5254222,0.5,'11111222,11111222,11111222' 
TABS,ioos:station:wmo:42047:1,2016-08-03T13:00:00Z,27.8966,-93.5973,4.0,0.4580393,143.8809541,0.6,'11111222,11111222,11111222' 
TABS,ioos:station:wmo:42047:1,2016-08-03T13:30:00Z,27.8966,-93.5973,4.0,0.594390444,12.63312193,1.16,'11111222,11111222,11111222' 
TABS,ioos:station:wmo:42047:1,2016-08-03T14:00:00Z,27.8966,-93.5973,4.0,1.156027681,329.8861268,1.67,'11111222,11111222,11111222' 
TABS,ioos:station:wmo:42047:1,2016-08-03T14:30:00Z,27.8966,-93.5973,4.0,1.547384891,333.1036155,2.3,'11111222,11111222,11111222' 
TABS,ioos:station:wmo:42047:1,2016-08-03T15:00:00Z,27.8966,-93.5973,4.0,1.426183719,14.62062934,2.03,'11111222,11111222,11111222' 
TABS,ioos:station:wmo:42047:1,2016-08-03T15:30:00Z,27.8966,-93.5973,4.0,2.035779949,10.75773147,2.73,'11111222,11111222,11111222' 
TABS,ioos:station:wmo:42047:1,2016-08-03T16:00:00Z,27.8966,-93.5973,4.0,2.31294185,28.11592571,3.05,'11111222,11111222,11111222' 
TABS,ioos:station:wmo:42047:1,2016-08-03T16:30:00Z,27.8966,-93.5973,4.0,2.442334948,13.97910284,3.18,'11111222,11111222,11111222' 
TABS,ioos:station:wmo:42047:1,2016-08-03T17:00:00Z,27.8966,-93.5973,4.0,3.399117533,25.81093203,4.45,'11111222,11111222,11111222' 
TABS,ioos:station:wmo:42047:1,2016-08-03T17:30:00Z,27.8966,-93.5973,4.0,2.889169431,27.18560495,3.82,'11111222,11111222,11111222' 
TABS,ioos:station:wmo:42047:1,2016-08-03T18:00:00Z,27.8966,-93.5973,4.0,3.46394284,38.78866778,4.42,'11111222,11111222,11111222' 
TABS,ioos:station:wmo:42047:1,2016-08-03T18:30:00Z,27.8966,-93.5973,4.0,3.640673015,37.97130451,4.59,'11111222,11111222,11111222' 
TABS,ioos:station:wmo:42047:1,2016-08-03T19:00:00Z,27.8966,-93.5973,4.0,3.896588251,38.95803912,4.51,'11111222,11111222,11111222' 
TABS,ioos:station:wmo:42047:1,2016-08-03T19:30:00Z,27.8966,-93.5973,4.0,3.146966794,38.28986319,4.31,'11111222,11111222,11111222' 
TABS,ioos:station:wmo:42047:1,2016-08-03T20:00:00Z,27.8966,-93.5973,4.0,3.286943869,41.54637614,4.15,'11111222,11111222,11111222' 
TABS,ioos:station:wmo:42047:1,2016-08-03T20:30:00Z,27.8966,-93.5973,4.0,3.263816784,47.85588403,4.53,'11111222,11111222,11111222' 
TABS,ioos:station:wmo:42047:1,2016-08-03T21:00:00Z,27.8966,-93.5973,4.0,2.872559834,46.9746137,4.13,'11111222,11111222,11111222' 
TABS,ioos:station:wmo:42047:1,2016-08-03T21:30:00Z,27.8966,-93.5973,4.0,2.607393334,62.84494725,3.31,'11111222,11111222,11111222' 
TABS,ioos:station:wmo:42047:1,2016-08-03T22:00:00Z,27.8966,-93.5973,4.0,1.946124354,53.77748117,2.76,'11111222,11111222,11111222' 
TABS,ioos:station:wmo:42047:1,2016-08-03T22:30:00Z,27.8966,-93.5973,4.0,2.485558287,71.7104635,3.75,'11111222,11111222,11111222' 
TABS,ioos:station:wmo:42047:1,2016-08-03T23:00:00Z,27.8966,-93.5973,4.0,3.01444854,78.13052706,3.94,'11111222,11111222,11111222' 
TABS,ioos:station:wmo:42047:1,2016-08-03T23:30:00Z,27.8966,-93.5973,4.0,3.131293662,88.35255427,3.94,'11111222,11111222,11111222' 
TABS,ioos:station:wmo:42047:1,2016-08-04T00:00:00Z,27.8966,-93.5973,4.0,3.504882309,76.63740376,4.26,'11111222,11111222,11111222' 
TABS,ioos:station:wmo:42047:1,2016-08-04T00:30:00Z,27.8966,-93.5973,4.0,3.562485088,82.25616155,4.59,'11111222,11111222,11111222' 
TABS,ioos:station:wmo:42047:1,2016-08-04T01:00:00Z,27.8966,-93.5973,4.0,3.916758864,93.36687371,5.34,'11111222,11111222,11111222' 
TABS,ioos:station:wmo:42047:1,2016-08-04T01:30:00Z,27.8966,-93.5973,4.0,3.735505321,95.22261065,5.0,'11111222,11111222,11111222' 
TABS,ioos:station:wmo:42047:1,2016-08-04T02:00:00Z,27.8966,-93.5973,4.0,4.00312378,99.34507097,5.43,'11111222,11111222,11111222' 
TABS,ioos:station:wmo:42047:1,2016-08-04T02:30:00Z,27.8966,-93.5973,4.0,3.964252767,82.46225865,4.98,'11111222,11111222,11111222' 
TABS,ioos:station:wmo:42047:1,2016-08-04T03:00:00Z,27.8966,-93.5973,4.0,4.067849555,104.959022,5.43,'11111222,11111222,11111222' 
TABS,ioos:station:wmo:42047:1,2016-08-04T03:30:00Z,27.8966,-93.5973,4.0,4.136786192,120.3465142,5.01,'11111222,11111222,11111222' 
TABS,ioos:station:wmo:42047:1,2016-08-04T04:00:00Z,27.8966,-93.5973,4.0,4.108053067,119.9355255,4.9,'11111222,11111222,11111222' 
TABS,ioos:station:wmo:42047:1,2016-08-04T04:30:00Z,27.8966,-93.5973,4.0,4.344306619,129.9578764,5.33,'11111222,11111222,11111222' 
TABS,ioos:station:wmo:42047:1,2016-08-04T05:00:00Z,27.8966,-93.5973,4.0,4.108381677,126.0892301,4.99,'11111222,11111222,11111222' 
TABS,ioos:station:wmo:42047:1,2016-08-04T05:30:00Z,27.8966,-93.5973,4.0,4.282674398,127.8870497,5.33,'11111222,11111222,11111222' 
TABS,ioos:station:wmo:42047:1,2016-08-04T06:00:00Z,27.8966,-93.5973,4.0,4.177846335,120.493708,5.4,'11111222,11111222,11111222' 
TABS,ioos:station:wmo:42047:1,2016-08-04T06:30:00Z,27.8966,-93.5973,4.0,3.876209489,133.5368766,4.4,'11111222,11111222,11111222' 
TABS,ioos:station:wmo:42047:1,2016-08-04T07:00:00Z,27.8966,-93.5973,4.0,3.740601556,135.1086249,4.92,'11111222,11111222,11111222' 
TABS,ioos:station:wmo:42047:1,2016-08-04T07:30:00Z,27.8966,-93.5973,4.0,3.69009485,139.8368878,4.55,'11111222,11111222,11111222' 
TABS,ioos:station:wmo:42047:1,2016-08-04T08:00:00Z,27.8966,-93.5973,4.0,3.52239975,145.9944221,4.35,'11111222,11111222,11111222' 
TABS,ioos:station:wmo:42047:1,2016-08-04T08:30:00Z,27.8966,-93.5973,4.0,3.220636583,154.628708,4.05,'11111222,11111222,11111222' 
TABS,ioos:station:wmo:42047:1,2016-08-04T09:00:00Z,27.8966,-93.5973,4.0,2.97397041,153.4352214,3.41,'11111222,11111222,11111222' 
TABS,ioos:station:wmo:42047:1,2016-08-04T09:30:00Z,27.8966,-93.5973,4.0,2.031181922,151.7950454,2.73,'11111222,11111222,11111222' 
TABS,ioos:station:wmo:42047:1,2016-08-04T10:00:00Z,27.8966,-93.5973,4.0,2.143571786,168.4282036,2.88,'11111222,11111222,11111222' 
TABS,ioos:station:wmo:42047:1,2016-08-04T10:30:00Z,27.8966,-93.5973,4.0,2.334823334,176.3167327,3.33,'11111222,11111222,11111222' 
TABS,ioos:station:wmo:42047:1,2016-08-04T11:00:00Z,27.8966,-93.5973,4.0,1.712103969,168.8871959,2.43,'11111222,11111222,11111222' 
TABS,ioos:station:wmo:42047:1,2016-08-04T11:30:00Z,27.8966,-93.5973,4.0,1.302497601,165.3238516,1.73,'11111222,11111222,11111222' 
TABS,ioos:station:wmo:42047:1,2016-08-04T12:00:00Z,27.8966,-93.5973,4.0,1.17686023,155.3951441,1.52,'11111222,11111222,11111222' 
TABS,ioos:station:wmo:42047:1,2016-08-04T12:30:00Z,27.8966,-93.5973,4.0,1.203079382,117.2043684,2.33,'11111222,11111222,11111222' 
TABS,ioos:station:wmo:42047:1,2016-08-04T13:00:00Z,27.8966,-93.5973,4.0,1.790474797,81.32642532,2.34,'11111222,11111222,11111222' 
TABS,ioos:station:wmo:42047:1,2016-08-04T13:30:00Z,27.8966,-93.5973,4.0,1.846104006,94.6609555,2.64,'11111222,11111222,11111222' 
TABS,ioos:station:wmo:42047:1,2016-08-04T14:00:00Z,27.8966,-93.5973,4.0,2.276949714,101.6557745,3.14,'11111222,11111222,11111222' 
TABS,ioos:station:wmo:42047:1,2016-08-04T14:30:00Z,27.8966,-93.5973,4.0,1.9901005,89.42376284,2.54,'11111222,11111222,11111222' 
TABS,ioos:station:wmo:42047:1,2016-08-04T15:00:00Z,27.8966,-93.5973,4.0,2.061771083,96.12577853,2.82,'11111222,11111222,11111222' 
TABS,ioos:station:wmo:42047:1,2016-08-04T15:30:00Z,27.8966,-93.5973,4.0,1.959234544,112.5077564,2.82,'11111222,11111222,11111222' 
TABS,ioos:station:wmo:42047:1,2016-08-04T16:00:00Z,27.8966,-93.5973,4.0,2.428518067,117.1984853,2.95,'11111222,11111222,11111222' 
TABS,ioos:station:wmo:42047:1,2016-08-04T16:30:00Z,27.8966,-93.5973,4.0,2.315879962,123.5531748,3.15,'11111222,11111222,11111222' 
TABS,ioos:station:wmo:42047:1,2016-08-04T17:00:00Z,27.8966,-93.5973,4.0,2.316246964,110.4695627,3.27,'11111222,11111222,11111222' 
TABS,ioos:station:wmo:42047:1,2016-08-04T17:30:00Z,27.8966,-93.5973,4.0,2.578565493,105.0606216,3.38,'11111222,11111222,11111222' 
TABS,ioos:station:wmo:42047:1,2016-08-04T18:00:00Z,27.8966,-93.5973,4.0,5.566506984,114.6317256,9.79,'11111222,11111222,11111222' 
TABS,ioos:station:wmo:42047:1,2016-08-04T18:30:00Z,27.8966,-93.5973,4.0,5.256805113,72.73662299,6.59,'11111222,11111222,11111222' 
TABS,ioos:station:wmo:42047:1,2016-08-04T19:00:00Z,27.8966,-93.5973,4.0,4.123930164,87.49796212,5.21,'11111222,11111222,11111222' 